STARLINK-32404, 61710

Orbit data source: Space-Track

STARLINK-32404, 61710 is a payload satellite owned by SpaceX/Seattle (US) in LEO that was launched on Wed, 30 Oct 2024 UTC via an FALCON 9 launch vehicle from the Air Force Eastern Test Range (AFETR). Payloads include a variety of satellites, spacecraft, and rockets equipped with specific instruments for various scientific and technological missions. These include communications satellites like Starlink; space stations such as the ISS; scientific satellites like the Hubble; Earth observation satellites from companies like Planet Labs, Umbra, and HawkEye 360; GPS; miniature CubeSats for education and research; and military/defense satellites.

Loading next visibility...
STARLINK-32404 details
Identifier
61710, 2024-196D
Orbit
LEO
Last TLE update1 day ago
Origin
Flag of USSpaceX/Seattle (US)
ManufacturerSpaceX/Seattle
MissionOperational spacecraft
Bus & MotorSTARLINK V2M, Unknown motor
Mass730 kg wet, ~700 kg dry
Launch date (UTC)
2024-10-30 (2 months ago)
Launch vehicle
FALCON 9
Launch site
Air Force Eastern Test Range (AFETR)
Object type
Payload
Rocket body
Debris
Shape & HBRUnknown
Radar Cross SectionLarge (>1 m²)

Expand to show TLE details & history

TLE from 1 day ago
0 STARLINK-32404
1 61710U 24196D   24360.37963270 -.00000595  00000-0 -49043-5 0  9995
2 61710  53.1626 344.2109 0001220 105.1826 254.9314 15.39618121  9869
Epoch: 2024-12-25T09:06Z
Definitive object data (Epoch: 2024-12-25T09:06:40.265Z)
Latitude
Longitude113.16891°
Altitude448.358 km
Speed7.644 km/s
True Right ascension22h 56m 50s
True Declination0° 00' 00"
Sunlit
Object was in daylight at TLE epoch
Visualization TLE readout
Latitude28.03588°
Longitude131.61544°
Altitude448.386 km
Speed7.647 km/s
Apparent Right ascension23h 00m 11s
Apparent Declination-4° 53' 13"
Sunlit
Object is in daylight
Visualization observer readout
Local Sidereal Time09:32:43
Azimuth324.903° NNW
Elevation-49.808°
Doppler factor1
Orbital elements
Apogee altitude448.327 km
Perigee altitude446.662 km
Semi-major axis6,825.632 km
Eccentricity0.000122
Inclination53.1626°
RAAN344.2109°
Arg. of periapsis105.1826°
True anomaly254.9179°
Mean anomaly254.9314°
Eccentric anomaly254.92465°
Mean motion3.84883 °/min
BSTAR-0.0000049043
Orbital period93.53 mins
Loading maneuver chart data...
Loading historical data...
Loading historical data...
Loading historical data...
Loading historical data...
Loading historical data...
Loading historical data...
Loading historical data...

STARLINK-32404 Visibility forecast

Observer location: undefined°, undefined

Span
Click to sort rows by Start time (UTC) header in descending order
Start Az.
Max El. time (UTC)
Max El. Az.
Max El.
End time (UTC)
End Az.
5 mins2024-12-27 01:49:35.120Z246.318° WSW2024-12-27 01:51:35.120Z335.458° NNW41.79°2024-12-27 01:54:35.120Z43.834° NE
5 mins2024-12-27 08:21:35.120Z307.797° NW2024-12-27 08:23:35.120Z294.622° NW42.411°2024-12-27 08:26:35.120Z134.37° SE
|